• In Czech Republic
  • List of Countries
  • For 7 days
  • Water Temperature
  • Satellite Maps
  • Weather Map
  • Weather Widgets
  • user-avatar
    Login

    Hourly Weather Sololá

    Today, 19 October, Friday

    Time Temperature Precipitation Wind Pressure Humidity
    00:00 +13°C° 1.3 mm 1 mps 594 mmHg 96%
    01:00 +13°C° 2.6 mm 1 mps 594 mmHg 96%
    02:00 +13°C° 2.6 mm 1 mps 594 mmHg 97%
    03:00 +13°C° 2.6 mm 1 mps 594 mmHg 97%
    04:00 +13°C° 2.2 mm 1 mps 594 mmHg 97%
    05:00 +13°C° 2.2 mm 1 mps 594 mmHg 97%
    06:00 +13°C° 2.2 mm 1 mps 594 mmHg 97%
    07:00 +14°C° 1.3 mm 1 mps 595 mmHg 96%
    08:00 +14°C° 1.3 mm 1 mps 595 mmHg 95%
    09:00 +14°C° 1.3 mm 1 mps 596 mmHg 93%
    10:00 +15°C° 1 mm 1 mps 596 mmHg 91%
    11:00 +15°C° 1 mm 1 mps 596 mmHg 88%
    12:00 +16°C° 1 mm 1 mps 596 mmHg 86%
    13:00 +16°C° 0.6 mm 1 mps 596 mmHg 85%
    14:00 +16°C° 0.6 mm 1 mps 595 mmHg 85%
    15:00 +16°C° 0.6 mm 1 mps 595 mmHg 84%
    16:00 +16°C° 0.4 mm 1 mps 595 mmHg 87%
    17:00 +15°C° 0.4 mm 1 mps 594 mmHg 90%
    18:00 +13°C° 0.4 mm 0 mps 594 mmHg 93%
    19:00 +14°C° 0.2 mm 1 mps 594 mmHg 92%
    20:00 +14°C° 0.2 mm 1 mps 595 mmHg 92%
    21:00 +14°C° 0.2 mm 1 mps 595 mmHg 92%
    22:00 +13°C° 0.2 mm 1 mps 595 mmHg 91%
    23:00 +13°C° 0.2 mm 1 mps 595 mmHg 91%

    Tomorrow, 20 October, Saturday

    Time Temperature Precipitation Wind Pressure Humidity
    00:00 +13°C° 0.2 mm 1 mps 595 mmHg 91%
    01:00 +13°C° 0.1 mm 1 mps 594 mmHg 90%
    02:00 +13°C° 0.1 mm 1 mps 594 mmHg 90%
    03:00 +13°C° 0.1 mm 1 mps 594 mmHg 89%
    04:00 +13°C° 0 mm 1 mps 594 mmHg 89%
    05:00 +13°C° 0 mm 1 mps 594 mmHg 88%
    06:00 +12°C° 0 mm 1 mps 594 mmHg 87%
    07:00 +14°C° 0 mm 1 mps 595 mmHg 82%
    08:00 +16°C° 0 mm 1 mps 596 mmHg 76%
    09:00 +19°C° 0 mm 1 mps 597 mmHg 71%
    10:00 +20°C° 0.3 mm 1 mps 597 mmHg 70%
    11:00 +20°C° 0.3 mm 1 mps 597 mmHg 70%
    12:00 +21°C° 0.3 mm 1 mps 597 mmHg 70%
    13:00 +20°C° 1 mm 1 mps 596 mmHg 73%
    14:00 +20°C° 1 mm 1 mps 595 mmHg 77%
    15:00 +19°C° 1 mm 1 mps 595 mmHg 81%
    16:00 +18°C° 1.6 mm 1 mps 594 mmHg 85%
    17:00 +16°C° 1.6 mm 1 mps 594 mmHg 89%
    18:00 +15°C° 1.6 mm 1 mps 594 mmHg 93%
    19:00 +14°C° 1.5 mm 1 mps 594 mmHg 93%
    20:00 +14°C° 1.5 mm 1 mps 595 mmHg 92%
    21:00 +14°C° 1.5 mm 1 mps 595 mmHg 92%
    22:00 +13°C° 0.7 mm 1 mps 595 mmHg 92%
    23:00 +13°C° 0.7 mm 1 mps 595 mmHg 92%

    Day after tomorrow, 21 October, Sunday

    Time Temperature Precipitation Wind Pressure Humidity
    00:00 +13°C° 0.7 mm 1 mps 594 mmHg 92%
    01:00 +13°C° 0.3 mm 1 mps 594 mmHg 91%
    02:00 +13°C° 0.3 mm 1 mps 594 mmHg 91%
    03:00 +13°C° 0.3 mm 1 mps 593 mmHg 90%
    04:00 +13°C° 0.2 mm 1 mps 593 mmHg 89%
    05:00 +13°C° 0.2 mm 1 mps 594 mmHg 89%
    06:00 +13°C° 0.2 mm 1 mps 594 mmHg 88%
    07:00 +15°C° 0.1 mm 1 mps 595 mmHg 82%
    08:00 +16°C° 0.1 mm 1 mps 596 mmHg 76%
    09:00 +19°C° 0.1 mm 1 mps 597 mmHg 70%
    10:00 +20°C° 0.1 mm 1 mps 597 mmHg 67%
    11:00 +20°C° 0.1 mm 2 mps 597 mmHg 64%
    12:00 +21°C° 0.1 mm 2 mps 597 mmHg 61%
    13:00 +20°C° 1 mm 2 mps 596 mmHg 65%
    14:00 +20°C° 1 mm 2 mps 596 mmHg 69%
    15:00 +19°C° 1 mm 2 mps 595 mmHg 73%
    16:00 +17°C° 0.6 mm 2 mps 594 mmHg 79%
    17:00 +16°C° 0.6 mm 1 mps 594 mmHg 86%
    18:00 +14°C° 0.6 mm 1 mps 593 mmHg 92%
    19:00 +14°C° 0 mm 1 mps 594 mmHg 92%
    20:00 +13°C° 0 mm 1 mps 594 mmHg 93%
    21:00 +13°C° 0 mm 1 mps 595 mmHg 93%
    22:00 +12°C° 0 mm 1 mps 595 mmHg 92%
    23:00 +12°C° 0 mm 1 mps 594 mmHg 92%

    22 October, Monday

    Time Temperature Precipitation Wind Pressure Humidity
    00:00 +12°C° 0 mm 1 mps 594 mmHg 92%
    01:00 +11°C° 0 mm 1 mps 594 mmHg 91%
    02:00 +11°C° 0 mm 1 mps 593 mmHg 90%
    03:00 +11°C° 0 mm 1 mps 593 mmHg 89%
    04:00 +11°C° 0 mm 1 mps 593 mmHg 87%
    05:00 +11°C° 0 mm 1 mps 593 mmHg 86%
    06:00 +11°C° 0 mm 1 mps 593 mmHg 85%
    07:00 +13°C° 0 mm 1 mps 595 mmHg 75%
    08:00 +16°C° 0 mm 1 mps 596 mmHg 66%
    09:00 +20°C° 0 mm 1 mps 598 mmHg 56%
    10:00 +21°C° 0 mm 1 mps 598 mmHg 54%
    11:00 +21°C° 0 mm 2 mps 598 mmHg 53%
    12:00 +23°C° 0 mm 2 mps 598 mmHg 52%
    13:00 +21°C° 0.4 mm 2 mps 597 mmHg 58%
    14:00 +20°C° 0.4 mm 2 mps 597 mmHg 64%
    15:00 +19°C° 0.4 mm 2 mps 596 mmHg 71%
    16:00 +18°C° 0.5 mm 2 mps 595 mmHg 78%
    17:00 +16°C° 0.5 mm 1 mps 595 mmHg 85%
    18:00 +14°C° 0.5 mm 1 mps 594 mmHg 91%
    19:00 +13°C° 0 mm 1 mps 595 mmHg 92%
    20:00 +13°C° 0 mm 1 mps 595 mmHg 92%
    21:00 +12°C° 0 mm 1 mps 595 mmHg 92%
    22:00 +12°C° 0 mm 1 mps 595 mmHg 92%
    23:00 +12°C° 0 mm 1 mps 595 mmHg 91%

    23 October, Tuesday

    Time Temperature Precipitation Wind Pressure Humidity
    00:00 +12°C° 0 mm 1 mps 594 mmHg 91%
    01:00 +12°C° 0 mm 1 mps 594 mmHg 90%
    02:00 +12°C° 0 mm 1 mps 594 mmHg 89%
    03:00 +11°C° 0 mm 1 mps 594 mmHg 88%
    04:00 +11°C° 0 mm 1 mps 594 mmHg 86%
    05:00 +11°C° 0 mm 1 mps 594 mmHg 85%
    06:00 +11°C° 0 mm 1 mps 594 mmHg 84%
    07:00 +14°C° 0 mm 1 mps 595 mmHg 75%
    08:00 +16°C° 0 mm 1 mps 597 mmHg 66%
    09:00 +20°C° 0 mm 1 mps 598 mmHg 58%
    10:00 +21°C° 0 mm 1 mps 598 mmHg 55%
    11:00 +21°C° 0 mm 2 mps 598 mmHg 52%
    12:00 +23°C° 0 mm 2 mps 598 mmHg 49%
    13:00 +23°C° 0 mm 2 mps 597 mmHg 53%
    14:00 +21°C° 0 mm 2 mps 597 mmHg 56%
    15:00 +21°C° 0 mm 2 mps 596 mmHg 59%
    16:00 +18°C° 0.1 mm 2 mps 595 mmHg 70%
    17:00 +16°C° 0.1 mm 1 mps 595 mmHg 80%
    18:00 +14°C° 0.1 mm 1 mps 594 mmHg 91%
    19:00 +13°C° 0 mm 1 mps 594 mmHg 90%
    20:00 +13°C° 0 mm 1 mps 595 mmHg 89%
    21:00 +12°C° 0 mm 1 mps 595 mmHg 89%
    22:00 +12°C° 0 mm 1 mps 595 mmHg 87%
    23:00 +12°C° 0 mm 1 mps 594 mmHg 85%

    24 October, Wednesday

    Time Temperature Precipitation Wind Pressure Humidity
    00:00 +12°C° 0 mm 1 mps 594 mmHg 84%
    01:00 +11°C° 0 mm 1 mps 594 mmHg 84%
    02:00 +11°C° 0 mm 1 mps 594 mmHg 84%
    03:00 +11°C° 0 mm 1 mps 593 mmHg 84%
    04:00 +11°C° 0 mm 1 mps 594 mmHg 84%
    05:00 +11°C° 0 mm 1 mps 594 mmHg 83%
    06:00 +11°C° 0 mm 1 mps 594 mmHg 83%
    07:00 +14°C° 0 mm 1 mps 596 mmHg 74%
    08:00 +16°C° 0 mm 1 mps 597 mmHg 65%
    09:00 +20°C° 0 mm 1 mps 598 mmHg 56%
    10:00 +21°C° 0 mm 1 mps 598 mmHg 55%
    11:00 +21°C° 0 mm 2 mps 598 mmHg 53%
    12:00 +23°C° 0 mm 2 mps 598 mmHg 52%
    13:00 +23°C° 0 mm 2 mps 598 mmHg 54%
    14:00 +21°C° 0 mm 2 mps 597 mmHg 56%
    15:00 +21°C° 0 mm 2 mps 596 mmHg 59%
    16:00 +18°C° 0.1 mm 2 mps 596 mmHg 69%
    17:00 +16°C° 0.1 mm 1 mps 595 mmHg 80%
    18:00 +14°C° 0.1 mm 1 mps 594 mmHg 90%
    19:00 +13°C° 0 mm 1 mps 594 mmHg 90%
    20:00 +13°C° 0 mm 1 mps 595 mmHg 89%
    21:00 +12°C° 0 mm 1 mps 595 mmHg 89%
    22:00 +12°C° 0 mm 1 mps 595 mmHg 87%
    23:00 +12°C° 0 mm 1 mps 594 mmHg 86%
    Show more